COSMOS 414

Satellite information

Favourite Embed

Satellite Type and Status

PAYLOADIN ORBIT

Key statistics

Satellite COSMOS 414 at a glance.

Uptime

19845

Days in orbit

Revolutions

≈ 12.5

Per day

Orbit

LEO

Low Earth Orbit

Inclination

74.0

Latest

Satellite identification and parameters

Extended collection of information and parameters for COSMOS 414.

Object identification

Identified? True

Debris? False

Object name: COSMOS 414

International designator: 1971-041D

Object number (NORAD): 5213

Object ID (CCSDS): 5213

Country: COMMONWEALTH OF INDEPENDENT STATES (CIS)

Current information (Y/N): Y

RCS size: MEDIUM

Orbital parameters

Period: 115.095 minutes

Inclination: 74.0138 deg

SMA: 7837.858 km

Apoapsis: 1492.706 km

Periapsis: 1426.739 km

RAAN: 285.8909 deg

Eccentricy: 0.00420827

Argument of periapsis: 151.211 deg

Mean anomaly: 278.9628 deg

Mean motion: 12.51142311 rev/day

Mean motion (dot): 0.00000014 rev/day2

B* drag term: 0.00019084643 1/REarth

Two-line elements (TLE)

Creation date: Sept. 4, 2025, 10:13 a.m.

Reference frame: TEME

Reference center: EARTH

Epoch: Sept. 4, 2025, 4:38 a.m. UTC

TLE line 0: 0 COSMOS 414

TLE line 1: 1 05213U 71041D 25247.19365795 .00000014 00000-0 19085-3 0 9990

TLE line 2: 2 05213 74.0138 285.8909 0042083 151.2110 278.9628 12.51142311481382

Live tracking on map

Real-time ground track for satellite COSMOS 414.

In-orbit conjunctions

There are no conjunctions computed for COSMOS 414, at the moment. Check back to stay up to date, as we update our databases every day.

Go to all conjunctions

Associated space launch

Military communications satellites

COSMOS 414 was lifted into orbit during the mission ‘Kosmos-3M | Strela-1M 9-16’, on board a Kosmos-3M space rocket.

The launch took place on May 7, 1971, 2:20 p.m. from 132/1 (132L).

For more information about the launch, click the button.

Launch to space Kosmos-3M | Strela-1M 9-16
Kosmos-3M | Strela-1M 9-16

Agency: N/A

Status: Launch Successful

Launch date: May 7, 1971, 2:20 p.m. UTC

Rocket: Kosmos-3M

Launch pad: 132/1 (132L)

Location: Plesetsk Cosmodrome, Russian Federation

...

Latest news about this satellite

There are no fresh news available about this satellite. Check back as we update our databases every day.


Newsletter sign-up

Weekly statistics, charts and insights to help you stay on top of the space industry.